Regional Weather Roundup
Issued by NWS Little Rock, AR

Home | Current Version | Previous Version | Graphics & Text | Print | Product List | Glossary On
Versions: 1 2 3 4 5 6 7 8 9 10 11 12 13 14 15 16 17 18 19 20 21 22 23 24 25 26 27 28 29 30 31 32 33 34 35 36 37 38 39 40 41 42 43 44 45 46 47 48 49 50
000
ASUS44 KLZK 272105
RWRLZK

WEATHER ROUNDUP FOR ARKANSAS
NATIONAL WEATHER SERVICE LITTLE ROCK AR
400 PM CDT MON JUL 27 2015

NOTE: "FAIR" INDICATES FEW OR NO CLOUDS BELOW 12,000 FEET WITH NO
SIGNIFICANT WEATHER AND/OR OBSTRUCTIONS TO VISIBILITY.

ARZ001-003-010-029-272200-
NORTHWEST ARKANSAS

CITY           SKY/WX    TMP DP  RH WIND       PRES   REMARKS
FAYETTEVILLE   SUNNY     92  75  57 S10       29.96S HX 103
FORT SMITH     SUNNY     97  72  44 E8        29.88F HX 105
HARRISON       MOSUNNY   94  75  54 VRB5      29.97S HX 105
BENTONVILLE    SUNNY     93  72  49 S8        29.97F HX 100
ROGERS         LGT RAIN  89  76  65 E5        29.97S HX 100
SILOAM SPGS    SUNNY     93  72  49 S8        29.94F HX 100
HIGHFILL       SUNNY     93  74  53 S6        29.96S HX 103
SPRINGDALE     PTSUNNY   91  72  52 SW10      29.98S HX  98
$$

ARZ004-005-016-272200-
NORTH CENTRAL ARKANSAS

CITY           SKY/WX    TMP DP  RH WIND       PRES   REMARKS
BATESVILLE     PTSUNNY   95  77  55 SE6       29.93S HX 109
FLIPPIN        PTSUNNY   84  73  70 CALM      29.93S HX  91
MTN HOME       PTSUNNY   83  73  72 S5        29.95F HX  89
$$

ARZ040-041-272200-
WEST CENTRAL ARKANSAS

CITY           SKY/WX    TMP DP  RH WIND       PRES   REMARKS
MENA           MOSUNNY   97  72  44 S8        29.95S HX 105
MOUNT IDA      MOSUNNY   97  70  41 CALM      29.92S HX 103
$$

ARZ009-017-025-026-028-272200-
NORTHEAST ARKANSAS

CITY           SKY/WX    TMP DP  RH WIND       PRES   REMARKS
JONESBORO      SUNNY     92  75  57 S9        29.93S HX 103
NEWPORT        SUNNY     96  77  54 S8        29.94F HX 110
WALNUT RIDGE   SUNNY     93  75  55 S10       29.91F HX 104
BLYTHEVILLE    SUNNY     93  74  53 SW5       29.93F HX 103
$$

ARZ022-023-033-042-044-272200-
CENTRAL ARKANSAS

CITY           SKY/WX    TMP DP  RH WIND       PRES   REMARKS
LITTLE ROCK    MOSUNNY   97  71  42 E8        29.91F HX 104
N LITTLE ROCK  MOSUNNY   96  74  48 S9        29.91F HX 107
JACKSONVILLE   SUNNY     99  69  38 SE10      29.91S HX 106
SEARCY         SUNNY     96  77  54 SE7       29.94S HX 111
HOT SPRINGS    SUNNY     98  69  38 VRB5      29.92F HX 104
RUSSELLVILLE   SUNNY     96  74  48 VRB6      29.90F HX 107
CLINTON        FAIR      95  77  55 SE5       29.94R HX 109
$$

ARZ036-272200-
EAST ARKANSAS

CITY           SKY/WX    TMP DP  RH WIND       PRES   REMARKS
WEST MEMPHIS   SUNNY     93  76  57 SW8       29.92F HX 105
$$

ARZ050-053-066-070-073-272200-
SOUTHWEST ARKANSAS

CITY           SKY/WX    TMP DP  RH WIND       PRES   REMARKS
ARKADELPHIA    FAIR     101  72  39 VRB7      29.91F HX 110
CAMDEN         SUNNY     99  70  39 S3        29.90F HX 105
TEXARKANA      SUNNY     98  69  38 S10G17    29.91F HX 104
EL DORADO      SUNNY     98  71  41 SE8       29.92F HX 106
DE QUEEN       PTSUNNY   97  73  45 S6        29.89S HX 107
$$

ARZ056-057-069-272200-
SOUTHEAST ARKANSAS

CITY           SKY/WX    TMP DP  RH WIND       PRES   REMARKS
PINE BLUFF     SUNNY     98  71  41 S6        29.91F HX 106
STUTTGART      SUNNY     97  72  44 S12       29.92F HX 105
MONTICELLO     MOSUNNY   97  73  45 S6        29.92F HX 107

$$





USA.gov is the U.S. government's official web portal to all federal, state and local government web resources and services.